Regional Weather Roundup
Issued by NWS

Home | Current Version | Previous Version | Text Only | Print | Product List | Glossary Off
Versions: 1 2 3 4 5 6 7 8 9 10 11 12 13 14 15 16 17 18 19 20 21 22 23 24 25 26 27 28 29 30 31 32 33 34 35 36 37 38 39 40 41 42 43 44 45 46 47 48 49 50

000
ASUS43 KFSD 070502
RWRSD

WEATHER ROUNDUP FOR SOUTH DAKOTA
NATIONAL WEATHER SERVICE SIOUX FALLS SD
1200 AM CDT TUE JUL 07 2015

NOTE: "FAIR" INDICATES FEW OR NO CLOUDS BELOW 12,000 FEET WITH NO
SIGNIFICANT WEATHER AND/OR OBSTRUCTIONS TO VISIBILITY.


SDZ001>005-009-010-012>017-070600-
NORTHWEST AND NORTH CENTRAL SOUTH DAKOTA

CITY           SKY/WX    TMP DP  RH WIND       PRES   REMARKS
BUFFALO          N/A     57  49  74 E8        30.13R
FAITH            N/A     56  51  84 E9        30.19R
MOBRIDGE       CLEAR     60  55  83 E10       30.16R HAZE
$$

SDZ012>016-024>037-041>051-057-063-072>074-070600-
SOUTHWEST AND SOUTH CENTRAL SOUTH DAKOTA

CITY           SKY/WX    TMP DP  RH WIND       PRES   REMARKS
RAPID CTY ARPT MOCLDY    61  57  87 CALM      30.21S
PIERRE         MOCLDY    59  54  83 E5        30.16R
CUSTER         CLOUDY    56  50  80 SE3       30.30S
ELLSWORTH AFB  MOCLDY    62  57  82 E5        30.20S
PHILIP         CLOUDY    63  60  90 E3        30.18R
PINE RIDGE     CLOUDY    61  56  83 CALM      30.23R
WINNER         FAIR      64  55  72 S5        30.18R
$$

SDZ004>011-016>023-039-040-070600-
NORTHEAST SOUTH DAKOTA

CITY           SKY/WX    TMP DP  RH WIND       PRES   REMARKS
ABERDEEN       CLEAR     57  52  83 CALM      30.17R
WATERTOWN      CLEAR     55  50  83 CALM      30.16R
BROOKINGS      CLEAR     54  48  82 NW5       30.16S
SISSETON         N/A     51  48  89 N6        30.15R
$$

SDZ017-020-022-023-036>040-048>070-070600-
SOUTHEAST SOUTH DAKOTA

CITY           SKY/WX    TMP DP  RH WIND       PRES   REMARKS
SIOUX FALLS    CLEAR     58  53  84 N6        30.13R
HURON          PTCLDY    60  55  83 NE8       30.14S HAZE
MITCHELL       CLEAR     60  58  92 N3        30.14F FOG
YANKTON        CLEAR     59  54  82 N5        30.13R
$$

ABBREVIATIONS USED IN REMARKS
   TC - TEMPERATURE IN CELSIUS
  WCI - WIND CHILL INDEX
   HX - HEAT INDEX
  VSB - VISIBILITY




USA.gov is the U.S. government's official web portal to all federal, state and local government web resources and services.